Temp
28 28 28 28 28 28 28 28 28 28 27 27 27 26 26 26 25 25 24 24 24 24 24 24 24 24 24 24 24 24 24 25 25 25 25 25 25 25 26 26 26 26 26 25 25 25 25 25 25 24 25 25 24 24 24 24 25 25 24 24 24 25 25
28 28 28 28 28 28 28 28 28 28 27 27 27 26 26 26 25 25 24 24 24 24 24 24 24 24 24 24 24 24 24 24 25 25 25 25 25 25 25 26 26 26 26 26 26 26 26 25 25 25 25 25 25 25 25 25 25 25 25 24 25 25 25
28 28 28 28 28 28 28 28 28 28 28 27 27 27 26 26 26 25 25 24 24 24 24 24 24 24 24 24 24 24 24 24 25 25 25 25 25 25 25 26 26 26 26 26 26 26 26 26 25 25 25 25 25 25 25 25 25 25 25 25 25 25 25
28 28 28 28 28 28 28 28 28 28 28 28 27 27 27 27 26 25 25 25 24 24 24 24 24 24 24 24 24 24 24 24 24 25 25 25 25 25 25 25 26 26 26 26 26 26 26 26 26 25 25 25 25 25 25 25 25 25 25 25 25 25 25
28 28 28 28 28 28 28 28 28 28 28 28 28 27 27 27 26 26 25 25 25 24 24 24 24 24 24 24 24 24 24 24 24 25 25 25 25 25 25 26 26 26 26 26 26 26 26 26 26 26 25 25 25 25 25 25 25 25 25 25 25 25 25
28 28 28 28 28 28 28 28 28 28 28 28 28 27 27 27 26 26 25 25 25 24 24 24 24 24 24 24 24 24 24 24 24 24 24 24 25 25 25 26 26 26 26 26 26 26 26 26 26 26 26 25 25 25 25 25 25 25 25 25 25 25 25
29 28 28 28 28 28 28 28 28 28 28 28 28 27 27 27 27 26 26 25 25 25 24 24 24 24 24 24 24 24 24 24 24 24 24 24 24 25 25 26 26 26 26 26 26 27 27 26 26 26 26 26 25 25 25 25 25 25 25 25 25 25 25
29 28 28 28 28 28 28 28 28 28 28 28 28 28 27 27 27 26 26 26 25 25 25 24 24 24 24 24 24 24 24 24 24 24 24 24 24 25 25 26 26 26 26 26 26 27 27 27 26 26 26 26 26 26 26 25 25 25 25 25 25 25 25
29 28 28 28 28 28 28 28 28 28 28 28 28 28 27 27 27 27 26 26 26 25 25 25 25 24 24 24 24 24 24 24 24 24 24 24 24 24 25 25 26 26 26 26 26 26 26 27 27 26 26 26 26 26 26 26 26 25 25 25 25 25 25
30 29 28 28 28 29 28 28 28 28 28 28 28 28 28 27 27 27 27 26 26 26 25 25 25 25 24 24 24 24 24 24 24 24 24 24 24 24 24 25 25 25 26 26 26 26 26 27 26 26 26 26 26 26 26 26 26 26 26 26 25 25 25
27 28 28 29 29 29 28 28 28 28 28 28 28 28 28 27 27 27 27 26 26 26 26 25 25 25 25 24 24 24 24 24 24 24 24 24 24 24 24 24 25 25 25 26 26 26 26 26 26 26 26 26 26 26 26 26 26 26 26 26 26 26 25
23 24 25 26 26 27 28 28 28 27 27 28 28 28 28 28 27 27 27 27 26 26 26 26 25 25 25 24 24 24 24 24 24 24 24 24 24 24 24 24 24 24 25 25 25 26 26 26 26 26 26 26 26 26 26 27 26 26 26 26 26 26 25
20 21 21 22 22 23 24 26 27 28 27 27 28 28 28 28 28 27 27 27 27 26 26 26 26 25 25 25 24 24 24 24 24 24 24 24 24 24 24 24 24 24 24 24 25 25 25 26 26 26 26 26 27 27 27 27 27 26 26 26 26 26 25
19 19 20 20 20 21 21 22 23 25 26 27 28 28 28 28 28 28 27 27 27 27 26 26 26 25 25 25 25 24 24 24 24 24 24 24 24 24 24 24 24 25 25 24 24 24 25 25 25 26 26 26 27 27 27 27 27 26 26 26 26 26 26
19 19 19 19 19 19 20 20 20 21 22 25 27 28 29 28 28 28 28 27 27 27 26 26 26 26 25 25 25 25 24 24 24 24 24 24 24 24 24 24 24 24 25 24 24 24 25 25 25 25 25 25 26 26 26 26 26 26 26 26 26 26 26
19 18 18 18 18 18 19 19 19 20 20 21 22 24 27 28 28 28 28 28 27 27 27 26 26 26 25 25 25 25 25 24 24 24 24 24 24 24 24 24 24 24 24 24 25 25 25 25 25 24 24 25 25 25 25 26 26 26 26 26 26 26 26
18 18 18 18 18 18 18 18 18 19 19 19 20 21 23 25 27 28 28 28 28 27 27 26 26 26 26 25 25 25 25 25 24 24 24 24 24 24 24 24 24 24 24 24 24 25 25 25 25 24 24 24 24 25 25 25 25 26 26 26 26 26 25
17 18 18 18 17 17 17 18 18 18 18 19 19 20 21 22 25 27 28 28 28 28 27 27 27 26 26 26 26 25 25 25 25 24 24 24 24 24 24 24 24 24 24 24 24 24 24 24 25 25 25 25 24 24 25 25 25 26 26 26 26 26 25
17 17 17 17 17 17 17 17 17 18 18 18 19 19 20 21 23 24 25 26 27 27 27 26 26 26 26 26 26 25 25 25 25 25 24 24 24 24 24 24 24 24 24 24 24 24 24 24 25 25 25 25 25 25 25 25 25 25 26 26 26 26 26
16 17 17 17 17 17 16 17 17 17 17 18 18 19 20 21 21 22 23 24 25 27 26 25 24 24 25 26 26 26 25 25 25 25 24 24 24 24 24 24 24 24 24 24 24 24 24 24 24 25 25 25 25 25 25 25 25 25 26 26 26 26 26
16 16 16 16 17 16 16 16 16 16 17 17 18 19 19 20 20 21 22 23 24 26 26 26 25 24 24 25 26 26 25 25 25 25 25 25 24 24 24 24 24 24 24 24 24 24 24 24 24 24 25 25 25 25 25 25 25 25 26 26 26 26 26
15 15 16 16 16 16 16 16 16 16 17 17 18 18 19 19 19 20 21 22 23 24 24 24 25 25 24 24 25 26 26 25 25 25 25 25 24 24 24 24 24 24 24 24 24 24 24 24 24 25 25 25 25 25 25 25 25 26 26 26 26 26 25
15 15 16 16 16 16 16 16 16 16 17 17 18 18 18 18 19 20 20 21 22 23 23 23 23 24 24 24 26 26 26 25 25 25 25 25 25 24 24 24 24 24 24 24 24 24 24 24 24 24 25 25 25 25 25 25 25 26 26 26 26 26 25
15 15 15 15 16 16 16 16 16 16 16 17 17 18 18 18 19 19 20 21 22 22 23 23 23 24 24 25 26 26 26 26 26 25 25 25 25 25 25 24 24 24 24 24 24 24 24 24 24 24 25 25 25 25 25 25 25 26 26 26 26 26 25
15 15 15 15 15 15 15 15 15 16 16 16 17 17 18 18 19 19 20 20 21 22 23 23 24 24 25 25 26 26 26 26 26 25 25 25 25 25 25 25 25 24 24 24 24 24 24 24 24 25 25 25 25 25 25 25 25 26 26 26 26 26 26
15 15 15 15 15 15 15 15 15 15 15 16 17 17 17 18 18 19 19 20 20 21 22 23 23 24 25 25 26 26 26 26 26 25 25 25 25 25 25 25 25 25 25 24 24 24 24 25 25 25 25 25 25 25 25 25 25 26 26 26 26 26 26
15 15 15 15 15 15 15 15 15 15 15 16 16 17 17 18 18 19 19 19 20 21 21 21 22 23 23 24 24 25 26 26 26 26 25 25 25 25 25 25 25 25 25 25 24 24 24 25 25 25 25 25 25 25 25 25 25 26 26 26 26 26 26
14 15 15 15 15 15 15 15 15 15 15 16 16 17 17 18 18 18 18 19 19 19 20 20 21 22 22 22 23 23 24 25 26 26 26 25 25 25 25 25 25 25 25 25 25 25 25 25 25 25 25 25 25 25 25 25 26 26 26 26 26 26 26
14 14 14 15 15 15 15 14 14 15 15 15 16 16 17 17 17 18 18 18 18 18 19 20 20 21 21 22 23 23 24 24 25 25 25 25 25 25 25 25 25 25 25 25 25 25 25 25 25 25 25 25 25 25 25 25 26 26 26 26 26 26 26
14 14 14 14 15 15 15 14 14 15 15 15 15 16 16 17 17 17 17 17 18 18 19 19 20 20 21 22 23 23 23 24 24 25 25 25 25 25 25 25 25 25 25 25 25 25 25 25 25 25 25 25 25 25 25 25 26 26 26 26 26 26 26
14 14 14 14 14 15 15 14 14 14 14 15 15 16 16 16 16 16 16 17 17 18 18 18 19 20 21 21 22 22 22 23 23 24 25 25 25 25 25 25 25 25 25 25 25 25 25 25 25 25 25 25 25 25 25 25 25 26 26 26 26 26 26
13 14 14 14 14 14 15 14 14 14 14 15 15 15 15 15 15 15 16 16 16 16 17 18 19 19 20 20 21 21 22 22 23 23 24 25 25 25 26 26 26 25 25 25 25 25 25 25 25 25 25 25 25 25 25 25 25 26 26 26 26 26 26
13 13 14 14 14 14 14 14 14 14 14 14 15 15 15 15 15 15 15 15 15 16 16 17 18 19 19 19 20 21 21 21 22 23 24 24 25 25 26 26 26 26 25 25 25 25 25 25 25 25 25 25 25 25 25 25 25 26 25 25 26 26 26
13 13 13 14 14 14 14 14 14 14 14 14 14 14 14 14 14 14 14 14 15 15 16 16 17 17 18 18 19 20 20 21 22 22 23 24 25 25 25 26 26 26 26 25 25 25 25 25 25 25 25 25 25 25 25 25 25 26 26 26 26 26 26
13 13 13 14 14 14 14 14 14 14 14 14 14 14 14 14 14 14 14 14 14 14 14 15 16 16 17 17 18 19 20 21 21 22 23 24 25 25 26 26 26 26 26 26 26 26 26 26 25 25 25 25 26 25 25 25 26 26 26 26 26 26 26
12 12 13 13 14 14 14 14 14 14 14 14 14 14 14 14 14 14 14 14 14 14 14 14 15 15 16 17 18 19 20 21 21 22 23 24 25 25 26 26 26 26 26 26 26 27 27 27 27 27 26 26 26 26 26 26 27 27 27 26 26 26 26
12 12 13 13 14 14 14 14 14 14 14 14 14 13 13 13 13 14 14 14 14 14 14 14 14 15 16 17 18 19 20 20 20 21 22 23 24 25 26 26 26 26 27 27 27 27 27 27 27 28 27 27 26 27 27 27 27 27 27 26 26 26 26
12 12 13 13 13 13 14 14 14 14 14 13 13 13 13 13 13 13 13 13 13 14 14 15 15 15 16 17 18 19 19 20 20 21 22 23 24 25 26 26 25 25 26 26 26 26 26 27 27 27 27 27 27 27 27 27 27 27 26 27 26 26 26
Height
742 744 746 747 749 751 752 754 757 761 765 767 771 774 776 780 782 785 788 791 794 796 799 803 805 809 812 814 816 818 820 823 826 828 830 831 833 834 836 837 838 840 841 842 843 844 845 847 848 849 850 851 852 853 854 855 856 857 858 859 860 860 861
738 739 741 743 745 747 747 750 753 757 761 764 768 771 774 776 779 782 785 788 791 794 797 800 803 805 808 812 814 816 818 821 823 826 828 830 831 833 834 836 837 838 840 841 842 843 845 846 847 848 849 850 851 852 853 854 855 856 857 858 859 859 860
732 733 735 737 739 741 743 746 750 753 757 760 764 767 770 773 776 778 782 785 788 792 794 797 800 802 805 809 812 814 816 818 821 823 826 827 829 831 833 834 836 837 839 840 841 842 843 844 845 846 847 849 850 851 852 853 854 855 856 857 858 859 859
727 727 728 731 733 737 740 742 746 749 753 756 759 763 766 770 773 777 780 783 786 789 792 794 797 800 803 806 809 812 814 816 818 820 823 825 827 829 831 832 834 835 837 838 840 841 842 843 844 845 846 847 848 850 851 852 853 854 855 856 857 858 859
724 725 727 730 731 734 736 737 741 745 748 752 756 760 764 768 772 775 778 781 783 786 788 792 796 798 801 803 806 809 811 813 816 818 820 823 825 828 829 830 832 833 835 836 838 839 841 842 842 843 845 846 847 848 850 851 852 853 854 855 856 857 858
721 724 725 727 728 729 731 732 736 740 744 748 752 757 762 766 770 772 776 779 782 784 787 790 793 795 798 801 803 806 809 811 814 816 819 821 824 826 827 828 830 831 833 834 836 837 839 840 841 842 843 844 846 847 848 849 850 852 853 854 855 856 857
716 720 721 722 723 725 727 729 732 737 741 746 750 755 759 763 766 770 773 776 779 782 785 788 790 792 795 798 801 804 806 809 812 815 817 820 822 823 825 826 828 829 831 833 834 835 837 838 839 840 841 843 844 845 847 848 849 850 852 853 853 854 855
711 713 715 717 718 721 724 726 729 734 739 744 748 752 756 759 763 767 770 773 777 780 782 785 787 790 793 796 799 801 803 806 809 812 815 818 820 821 823 824 826 827 829 830 832 833 835 836 837 838 840 841 842 844 845 846 847 849 850 851 852 853 854
709 710 710 712 714 717 720 723 727 731 736 740 744 747 752 756 759 763 766 770 774 777 779 782 785 788 791 794 796 798 801 804 806 809 812 815 817 819 821 822 824 826 827 828 830 831 833 834 835 836 838 839 840 841 843 844 845 846 848 849 850 851 852
711 713 714 715 717 718 720 723 727 730 733 737 741 744 748 752 756 760 763 767 770 773 776 779 783 786 789 791 793 796 799 801 804 806 808 811 814 816 818 821 822 824 825 826 828 829 831 832 833 835 836 837 838 839 840 842 843 844 845 846 847 848 849
717 718 719 720 722 723 725 727 728 729 730 733 736 740 744 748 752 756 759 763 766 769 773 777 780 783 786 788 791 794 796 798 801 803 805 807 809 812 815 818 820 822 823 825 826 827 829 830 831 833 833 834 836 837 838 839 840 842 843 844 845 846 847
731 730 728 727 727 727 728 729 730 732 733 734 736 738 742 745 749 752 756 760 763 766 770 774 777 781 783 786 789 791 793 795 798 800 802 804 806 809 812 815 817 820 821 823 824 826 827 828 829 830 831 832 833 834 835 837 838 839 840 841 842 844 845
742 740 740 737 734 733 732 733 734 735 737 739 740 742 744 746 748 751 754 757 760 764 767 771 774 778 781 783 785 787 790 792 794 797 799 801 804 806 809 811 813 816 818 821 822 824 825 825 826 827 828 829 830 832 833 834 835 837 838 839 840 841 843
748 747 746 744 742 741 739 739 738 736 736 739 741 743 745 747 750 752 754 757 759 762 765 768 771 774 777 780 782 784 786 788 791 794 796 798 801 804 806 808 810 812 814 817 819 821 822 823 824 825 826 827 828 829 830 832 833 834 835 836 838 839 840
755 754 753 752 751 749 747 745 743 742 740 739 740 741 743 745 748 750 753 756 758 761 763 766 769 772 774 777 778 780 783 786 788 791 793 796 798 800 803 805 807 809 811 813 815 817 819 821 822 823 823 824 825 827 828 829 830 831 832 834 835 836 837
762 761 760 759 758 756 754 751 748 747 745 744 743 742 742 743 744 747 750 753 756 759 762 764 767 769 771 773 775 777 780 783 785 788 791 793 795 796 799 801 804 806 808 810 811 813 815 817 819 820 821 822 823 824 825 826 827 828 829 830 832 833 834
768 766 764 763 763 761 758 755 753 751 750 749 748 746 744 743 743 744 747 750 753 755 758 762 764 766 768 769 771 774 777 779 782 785 787 789 791 793 795 797 800 802 804 806 808 810 811 813 815 816 818 820 821 821 822 823 823 825 826 827 829 830 831
773 771 768 765 765 764 762 759 757 755 754 753 752 750 748 745 744 744 745 747 749 752 755 758 759 762 764 766 769 771 773 776 778 781 783 785 787 789 791 793 796 798 800 801 803 806 808 809 810 812 814 816 817 818 819 819 820 821 823 824 825 827 828
777 774 771 768 767 767 765 763 761 759 757 756 754 753 751 748 745 745 745 746 747 750 753 757 759 760 760 762 765 767 769 773 775 777 779 781 782 784 787 789 791 793 795 797 799 802 804 805 807 808 810 812 813 814 815 815 816 818 819 821 822 823 824
780 776 773 771 770 769 767 765 763 761 758 757 756 754 752 750 748 746 745 745 746 747 750 755 761 764 763 761 762 764 767 770 771 773 775 777 779 781 783 785 786 788 791 793 796 798 799 800 802 804 806 808 809 810 811 811 812 814 815 817 818 820 821
782 779 777 775 774 773 771 767 764 762 759 757 757 756 754 751 749 747 745 745 745 746 746 749 754 761 765 764 763 763 765 766 768 770 772 774 776 778 780 781 783 785 787 789 791 793 794 796 798 800 801 803 804 806 806 807 808 810 811 812 814 816 817
784 781 780 779 777 777 775 771 767 764 760 758 757 757 756 753 750 748 746 744 745 746 747 748 749 750 755 760 762 761 761 763 765 767 769 771 773 774 776 777 779 781 783 786 788 789 790 792 793 795 796 798 800 801 801 802 804 806 807 808 810 811 813
785 782 781 781 781 779 778 775 770 765 762 760 759 758 756 753 751 749 747 746 745 746 747 749 750 749 750 753 756 757 758 760 762 763 765 767 769 770 771 773 774 777 779 782 784 785 786 788 789 790 791 793 795 796 796 797 799 801 802 803 805 807 808
786 783 781 781 782 780 778 776 772 768 765 762 760 760 756 751 750 749 748 746 746 746 747 748 749 750 750 750 751 753 754 756 757 759 761 763 764 766 767 769 771 773 775 777 779 780 782 783 785 786 787 788 789 790 791 792 794 796 797 798 800 802 803
786 784 782 781 781 779 778 777 774 770 765 760 759 760 757 752 750 749 749 748 746 746 746 746 746 747 747 748 749 751 752 752 754 755 757 759 760 761 763 765 767 769 771 773 774 776 778 780 782 782 782 783 784 785 787 788 789 791 792 793 795 797 798
787 785 783 781 780 778 777 776 774 771 766 761 758 757 756 753 750 749 749 749 747 746 744 744 744 744 745 746 747 748 749 750 751 752 753 755 756 757 759 761 763 765 767 768 770 772 774 776 777 778 778 779 780 781 782 783 784 785 786 787 789 792 794
789 787 785 782 780 778 776 774 773 771 768 764 760 756 755 752 750 749 749 749 749 747 744 743 742 742 744 744 745 745 746 746 748 749 750 752 753 754 756 757 759 760 762 763 766 767 769 770 772 773 774 775 776 777 777 778 778 779 781 782 784 786 789
788 787 784 780 777 776 775 773 772 769 765 762 758 756 754 752 749 748 749 750 750 748 745 743 742 742 743 743 743 743 743 743 744 746 747 749 750 752 752 753 755 756 758 760 761 763 764 766 767 768 769 770 772 772 772 773 774 774 776 777 779 781 783
786 786 783 779 775 773 773 772 771 768 764 760 756 754 754 752 749 746 746 747 748 746 743 742 741 741 741 741 741 740 740 741 741 742 743 744 746 748 748 750 751 752 754 755 757 758 760 761 763 764 765 766 767 767 767 768 769 770 771 772 774 776 778
785 785 783 781 778 773 771 770 769 768 764 759 755 753 753 753 749 745 744 744 743 742 740 740 740 740 740 740 739 739 739 739 739 740 740 740 741 743 744 745 747 748 749 751 753 754 755 756 758 760 760 761 761 761 762 763 764 765 766 767 769 771 772
785 784 782 781 778 774 771 767 766 765 763 758 754 752 752 752 750 747 744 741 740 740 740 740 740 739 738 738 738 737 737 737 736 736 736 736 737 738 739 741 743 744 745 747 748 749 750 751 753 754 755 756 756 756 757 758 760 760 761 762 764 766 767
785 783 781 779 777 774 771 766 763 762 760 757 754 752 751 751 751 748 746 743 740 740 741 741 740 739 738 737 735 735 734 733 732 732 732 732 733 733 734 736 737 738 740 742 743 744 744 746 747 749 750 750 750 750 752 754 755 756 756 758 760 761 762
783 781 780 778 775 773 771 767 763 760 758 756 754 752 751 751 750 749 748 745 741 740 740 740 739 738 738 736 734 733 731 730 729 728 728 728 728 729 729 731 732 733 735 736 737 738 739 740 742 743 744 744 744 746 748 750 751 751 751 753 754 755 756
781 780 778 776 774 772 770 767 765 762 759 756 755 753 751 749 748 748 748 745 742 740 739 738 737 735 734 733 732 730 728 727 726 726 725 725 724 724 724 725 727 728 728 729 729 731 732 734 736 737 737 738 739 742 745 746 745 744 745 747 748 749 751
779 777 775 774 773 771 769 767 765 763 760 757 755 753 750 747 746 746 746 743 741 739 737 735 734 732 730 729 728 726 725 724 724 723 722 721 720 719 718 718 719 720 720 721 722 723 725 727 728 729 730 732 734 737 739 738 736 736 738 741 742 743 746
777 775 772 771 770 769 767 766 764 762 760 757 754 752 749 747 745 744 744 743 740 737 734 733 732 730 728 726 725 723 723 722 721 720 718 717 715 714 713 713 714 714 715 715 716 717 719 721 721 721 724 726 728 729 730 729 728 729 733 736 738 739 741
776 772 769 768 767 766 765 764 762 760 758 756 753 751 748 746 744 743 742 741 737 734 732 731 730 728 726 725 723 721 720 720 718 716 714 712 711 710 709 709 710 710 711 711 712 713 715 715 716 717 719 721 722 723 724 723 724 728 731 733 735 737 738
772 770 767 765 764 763 762 761 760 759 756 754 752 750 747 745 743 742 740 737 733 731 730 730 729 727 725 724 722 720 719 718 716 714 711 709 707 705 705 705 705 706 706 707 708 709 710 710 712 714 716 718 718 719 720 721 723 727 729 730 732 734 735
Wind_Speed
14 14 14 13 14 15 15 16 21 25 28 31 32 35 37 37 38 38 37 40 41 40 40 40 40 40 40 39 39 39 38 38 38 37 36 35 33 32 32 31 30 28 27 27 26 25 25 24 23 22 21 20 20 19 18 18 19 18 15 14 14 14 15
14 15 15 14 14 16 16 18 23 25 27 30 32 34 36 36 38 39 38 40 41 41 41 41 41 41 41 41 39 39 39 39 39 38 36 36 35 33 33 33 32 30 28 27 26 25 25 25 25 24 23 22 21 20 19 18 19 20 18 16 15 13 13
15 16 16 16 16 16 17 18 22 25 28 30 32 34 36 37 39 40 40 40 41 41 41 42 42 42 42 41 39 39 39 39 40 39 38 37 37 36 34 34 34 32 30 29 27 26 25 25 25 25 24 23 23 22 21 19 19 20 20 18 16 14 14
16 17 17 18 17 16 16 18 22 26 28 31 34 36 37 38 39 40 40 41 41 41 40 42 42 42 41 41 40 40 39 39 40 41 40 39 39 38 36 35 35 34 33 31 29 28 26 25 26 26 25 25 24 23 22 20 19 20 21 19 17 17 16
16 16 15 15 15 16 16 17 22 27 29 31 34 36 37 38 37 38 39 40 42 42 42 42 41 40 40 40 40 40 40 41 41 41 41 40 39 38 37 37 37 36 35 34 32 30 29 28 27 27 27 26 25 24 23 22 21 21 21 20 19 19 18
14 14 14 14 15 16 17 18 24 29 30 31 34 35 36 36 36 37 38 39 40 40 41 41 41 41 40 41 40 39 39 40 40 40 40 39 38 38 39 40 39 38 37 36 34 33 32 30 29 28 27 27 26 25 25 23 22 22 22 21 21 21 20
14 14 14 15 15 15 16 18 23 30 31 31 32 33 34 36 36 37 37 37 39 39 39 40 41 41 40 40 40 39 38 38 38 38 38 37 37 38 39 40 40 39 38 37 36 34 34 33 32 30 28 27 27 26 25 24 23 23 23 23 23 23 23
14 15 16 16 16 16 16 16 21 27 29 29 29 31 33 35 35 35 36 37 38 38 39 39 40 40 39 38 39 39 38 38 38 38 37 36 36 36 38 39 40 41 39 38 37 36 35 34 33 32 30 29 27 26 26 25 25 24 24 25 25 25 25
11 13 15 15 15 15 14 16 21 25 27 29 30 30 32 34 35 35 36 37 37 37 39 39 40 39 38 38 38 38 38 37 37 38 37 36 36 36 37 38 40 40 40 40 39 37 36 35 34 34 32 31 30 28 28 27 26 26 26 27 27 27 27
6 5 6 7 9 11 10 13 18 20 23 26 28 29 32 33 34 35 36 36 36 37 39 39 38 38 38 38 38 37 37 36 37 37 37 38 37 37 36 37 37 38 39 39 39 38 37 36 35 35 34 33 32 31 30 29 29 28 28 28 29 29 29
5 4 4 3 2 4 7 10 13 15 20 26 27 29 31 33 34 34 35 36 37 38 38 38 37 37 37 37 37 37 37 37 36 36 37 39 39 39 38 36 35 36 37 38 38 37 37 37 36 36 35 35 34 33 32 32 31 31 30 30 30 30 30
14 12 10 9 7 4 1 5 7 9 14 19 24 27 29 31 33 34 34 36 37 37 38 37 37 36 36 36 36 36 36 37 36 36 37 38 39 39 39 38 36 35 36 36 37 37 37 37 38 37 37 37 36 35 35 34 33 33 32 32 31 31 31
15 15 14 13 12 10 9 6 1 5 8 12 16 20 23 26 28 30 32 34 36 36 36 36 36 36 35 36 36 36 36 37 37 38 38 38 38 39 39 39 38 37 36 36 36 36 37 37 38 39 39 39 39 38 37 35 35 34 33 33 32 31 31
17 17 16 16 15 14 13 12 8 3 4 11 15 17 18 20 24 26 29 31 33 35 35 35 36 36 36 36 35 36 37 38 38 38 38 38 37 37 38 38 39 39 38 36 35 36 36 37 38 38 39 40 40 40 38 37 36 35 34 34 33 32 32
18 17 17 17 17 15 14 13 12 11 8 1 9 15 19 20 22 24 26 28 30 32 33 34 34 35 35 35 36 37 37 37 37 37 38 37 37 37 38 38 38 38 38 37 36 37 37 37 37 36 37 38 39 39 39 38 38 37 36 36 35 34 34
16 15 15 15 14 14 14 14 13 13 15 15 9 0 9 17 22 24 24 26 28 30 32 33 34 35 35 35 36 38 37 37 36 36 36 36 37 38 38 38 38 37 37 37 38 38 37 37 36 36 35 36 37 38 38 38 39 39 39 38 37 36 36
15 15 14 13 13 13 13 14 14 14 15 18 18 15 8 2 14 22 25 25 27 30 31 32 33 33 35 36 36 36 36 36 36 36 36 37 38 38 38 38 38 38 38 37 38 38 38 37 37 37 36 36 36 37 38 39 40 40 40 40 39 38 37
14 14 14 14 13 13 13 13 13 14 16 18 20 20 17 11 1 11 19 22 25 28 30 33 35 35 34 35 36 36 37 36 36 36 37 37 38 38 39 38 38 38 38 38 38 38 37 37 38 38 37 36 36 36 37 39 41 41 42 41 41 40 38
13 13 14 14 14 14 12 12 13 15 17 19 20 22 21 16 10 5 4 10 15 19 20 21 26 32 36 37 36 37 37 36 36 36 37 38 39 39 38 38 38 38 38 38 38 37 37 38 38 38 38 37 37 37 38 39 41 42 42 42 43 42 40
11 12 12 12 14 14 12 13 15 18 21 21 21 23 22 17 14 11 6 2 10 18 19 14 14 20 28 34 37 36 36 36 36 37 38 38 38 38 37 37 38 39 38 38 36 36 37 38 38 38 38 38 38 39 39 39 41 42 42 43 43 43 42
10 11 11 11 12 12 14 18 20 21 23 25 23 21 21 20 18 14 10 3 7 17 23 23 22 21 23 27 32 34 35 36 36 37 37 37 37 36 37 37 38 38 38 37 36 37 38 38 37 38 38 39 39 39 39 40 41 41 42 42 43 43 42
10 10 10 11 12 13 15 20 22 22 24 26 25 21 20 21 20 16 12 7 2 8 13 20 26 28 27 28 30 32 34 35 36 36 36 36 36 36 37 37 37 38 37 36 36 36 36 36 37 38 38 39 39 39 40 41 42 41 42 43 43 43 42
10 11 10 11 12 14 16 18 21 23 24 25 24 21 20 20 18 16 13 10 7 4 5 11 18 23 27 29 32 33 34 35 35 36 36 35 35 36 37 37 37 38 37 35 35 35 35 36 37 38 38 38 39 39 41 42 42 42 42 43 42 42 42
11 12 13 13 13 14 15 17 19 21 22 25 22 18 19 20 17 15 14 12 11 9 6 8 13 17 21 26 30 31 33 35 36 36 35 35 35 36 37 37 37 37 36 36 36 36 36 36 36 37 38 39 40 41 41 41 42 42 42 43 43 42 42
12 14 15 15 15 16 16 16 17 18 22 25 24 20 18 19 18 16 15 14 13 11 10 9 11 13 17 22 26 27 30 33 35 35 35 35 36 37 36 36 37 36 36 36 36 36 36 35 35 36 37 39 40 41 41 41 42 42 43 44 44 42 42
11 15 17 17 16 17 18 16 15 17 20 24 26 25 20 18 17 16 15 15 14 13 13 14 16 16 16 18 22 25 27 29 32 33 34 35 36 36 36 36 36 35 35 36 36 36 35 35 35 36 37 38 38 39 40 41 42 42 44 45 44 43 43
10 14 18 20 18 16 18 18 17 16 18 21 24 24 22 18 16 15 15 15 13 13 15 17 18 19 19 17 18 21 24 27 29 31 32 34 35 35 35 35 35 35 35 36 35 35 34 35 35 36 36 37 37 38 40 41 42 43 44 45 45 44 43
9 13 18 23 22 18 16 17 19 19 20 22 23 22 20 20 18 16 15 14 12 13 16 18 19 19 19 19 17 17 19 23 28 31 32 32 33 32 33 34 34 34 35 35 34 34 35 35 35 35 35 35 36 38 40 41 42 44 44 45 45 44 44
9 10 15 20 23 22 19 16 17 21 22 24 25 23 20 18 18 19 18 16 16 18 19 19 19 19 19 19 18 16 15 16 21 27 30 31 31 32 33 33 33 34 34 34 34 34 34 35 34 33 33 33 34 37 39 40 42 43 44 45 45 45 45
11 11 12 15 19 23 23 18 16 19 23 24 25 24 22 18 17 18 19 20 22 24 23 22 20 20 19 18 17 17 16 16 17 20 25 29 31 32 32 32 32 33 34 34 33 32 32 33 33 32 31 32 33 35 37 39 40 41 43 45 46 46 46
13 12 12 14 17 19 22 22 20 19 21 24 24 23 23 21 18 17 20 23 24 25 24 22 20 19 19 19 18 18 18 18 18 18 21 25 29 31 32 32 32 32 32 33 32 32 31 31 31 31 31 31 32 34 36 37 38 39 41 44 45 46 47
13 14 13 13 15 17 19 22 23 20 19 21 23 24 24 23 18 16 19 22 23 23 22 20 18 18 18 19 20 19 19 19 20 20 20 23 27 31 33 33 32 32 32 32 32 32 32 31 31 31 31 31 33 34 34 34 35 38 39 40 42 45 47
14 14 14 14 15 16 16 18 20 20 20 21 22 24 25 24 20 17 18 19 20 21 20 18 17 17 17 18 20 21 21 20 21 21 21 22 26 30 32 33 33 32 31 31 32 32 32 31 30 30 30 31 32 32 30 31 33 36 37 37 40 44 47
15 15 16 17 17 16 15 14 16 18 20 21 22 24 25 25 23 20 19 18 18 18 19 19 17 17 18 19 19 20 21 21 21 22 22 23 25 29 32 32 33 33 34 35 36 34 32 31 31 32 33 33 31 29 27 29 33 37 37 38 40 42 44
17 18 18 19 18 17 15 14 15 17 19 21 23 24 24 25 25 23 21 18 17 17 18 19 19 19 19 19 18 18 19 20 21 22 23 23 24 29 33 35 36 37 37 40 42 41 38 36 36 37 38 36 33 30 28 30 36 41 42 41 41 42 43
18 20 21 20 19 18 16 14 14 16 18 20 22 23 23 24 25 25 22 19 18 18 18 19 20 19 17 17 17 16 17 18 21 24 25 23 23 26 31 35 39 40 40 40 42 45 46 44 43 44 42 39 37 37 38 39 43 45 43 41 41 42 43
18 20 22 22 19 18 18 16 15 15 18 20 22 23 24 24 24 24 22 20 19 19 19 19 19 18 17 16 16 17 17 19 23 25 26 25 23 23 26 29 33 38 41 41 41 43 47 49 50 49 45 41 40 41 43 46 45 41 37 37 39 40 41
19 21 22 22 19 18 18 17 15 15 18 20 21 22 24 25 24 23 22 22 21 21 21 21 18 17 17 17 17 17 18 20 23 25 25 25 24 23 23 24 26 30 36 40 40 40 43 48 51 51 47 45 43 41 41 43 42 39 36 35 35 36 39
Wind_Direction
191 194 194 193 194 195 196 193 190 188 189 190 190 190 189 189 189 189 190 192 194 195 195 196 198 200 202 203 204 204 206 207 210 212 213 214 215 213 211 211 213 216 218 219 220 220 219 217 215 217 220 223 227 230 234 235 232 233 237 244 252 255 248
192 196 195 194 195 196 196 194 192 190 189 191 191 191 190 190 190 190 191 193 194 195 195 196 198 199 202 204 205 205 206 208 209 212 213 214 216 216 215 214 215 217 220 221 222 223 223 221 219 220 222 225 228 231 234 235 232 233 235 240 250 251 243
194 196 194 195 196 195 195 193 193 192 190 191 191 192 192 192 191 191 192 193 194 196 196 197 199 200 202 203 205 206 207 208 209 211 213 214 215 217 218 219 219 220 222 223 224 224 224 224 223 223 225 227 230 232 235 235 233 232 233 237 244 245 240
197 198 194 196 194 192 194 193 193 194 192 192 193 193 194 193 193 193 193 194 194 195 197 198 199 200 202 203 204 206 208 208 210 211 213 214 216 218 220 220 221 221 223 224 225 225 225 226 226 226 228 229 231 234 236 237 234 229 230 234 241 244 244
200 199 196 196 194 192 194 193 193 193 193 193 193 194 195 194 193 193 195 195 196 197 198 199 200 201 202 204 204 206 208 209 210 211 212 214 217 219 220 222 222 221 223 225 226 226 227 226 226 228 230 230 232 235 237 239 236 229 229 234 241 244 244
198 196 196 195 195 195 195 194 193 193 193 193 192 194 195 194 194 194 195 196 197 198 199 199 201 202 203 204 205 207 208 210 211 212 213 214 217 219 221 222 223 223 223 224 226 227 227 227 227 228 230 231 233 235 237 239 238 233 233 236 240 244 244
194 194 198 197 195 195 195 194 193 193 193 193 191 192 193 194 195 195 195 197 198 199 199 200 201 202 203 205 206 207 208 210 211 212 214 215 216 219 221 223 223 223 223 225 226 228 227 228 228 228 229 230 231 233 235 238 239 238 238 239 241 243 244
194 194 195 196 195 193 193 193 191 191 191 191 190 190 191 193 195 195 196 197 198 199 200 201 202 203 204 205 207 208 209 210 211 212 214 215 217 219 220 222 223 223 223 225 227 228 229 229 229 228 228 228 229 231 233 236 239 240 241 242 243 244 244
203 202 199 196 194 192 192 192 190 188 189 190 191 190 190 193 194 196 197 197 198 199 201 203 203 204 205 205 207 209 210 211 211 212 213 214 217 219 220 221 222 222 223 225 227 229 230 230 230 229 228 229 230 231 233 235 238 240 242 244 245 246 247
192 196 200 200 199 195 193 190 188 188 188 190 192 191 191 192 194 196 197 197 198 200 203 203 203 204 205 206 208 210 210 212 212 212 212 214 216 219 221 221 221 222 222 224 226 227 229 230 230 230 230 231 232 234 236 237 238 239 242 244 246 247 248
47 58 74 100 172 196 196 193 192 192 191 191 191 192 191 192 194 195 197 198 199 201 203 203 203 204 204 206 208 209 210 212 212 212 213 214 215 218 221 222 223 223 224 224 225 226 228 228 228 229 231 233 235 237 239 241 242 242 242 244 246 247 248
27 28 34 45 48 52 146 198 200 203 202 199 196 194 193 193 194 195 197 198 199 201 202 202 203 204 204 205 207 209 211 211 212 213 214 215 216 218 220 222 224 226 227 227 227 227 228 229 229 230 232 235 238 241 243 244 244 244 245 246 246 246 247
28 28 24 27 36 38 35 33 71 196 200 206 208 204 200 197 197 196 197 199 200 201 202 202 203 203 204 205 207 209 211 212 213 214 215 217 218 218 220 221 223 226 228 230 230 230 230 230 231 233 234 237 239 242 244 244 244 245 245 246 246 246 247
23 27 23 21 24 26 29 27 19 24 173 189 199 207 208 205 203 202 200 200 201 202 202 202 202 203 203 205 207 209 211 212 214 215 216 217 218 220 221 221 223 225 227 229 231 232 232 232 233 235 236 238 239 241 242 243 243 244 244 245 246 246 247
21 21 19 19 18 17 19 21 18 13 15 83 181 194 202 203 204 204 204 204 203 203 203 202 201 203 204 205 207 210 212 213 213 215 216 217 218 219 221 223 224 225 226 227 229 232 234 235 235 236 236 237 239 240 240 241 242 243 244 244 245 244 246
20 18 16 15 13 12 13 14 15 14 12 13 16 51 195 198 200 201 203 204 204 204 204 203 203 203 204 206 209 210 212 212 213 214 215 216 218 219 221 223 224 226 227 227 228 230 232 234 236 236 237 238 238 239 239 240 241 243 244 244 244 244 245
17 15 11 8 8 11 12 12 12 12 10 5 360 1 11 181 197 199 201 202 202 204 204 203 204 205 205 208 210 211 212 212 212 214 215 216 218 219 220 222 223 225 227 228 230 231 231 233 234 236 237 238 238 239 239 240 241 242 243 244 245 245 244
13 10 6 1 2 6 9 10 10 8 2 356 351 352 357 5 50 186 195 199 201 203 204 203 203 204 207 210 210 211 212 212 212 213 214 216 217 218 220 221 222 224 225 227 229 230 231 232 233 235 236 237 238 239 239 241 243 243 244 245 245 245 244
11 7 4 360 355 357 5 8 5 360 353 350 348 347 348 354 11 40 162 187 192 194 199 208 209 207 206 209 211 212 211 211 212 213 214 216 217 218 219 220 221 223 224 226 228 229 230 232 233 234 235 235 236 238 239 241 243 244 244 245 246 246 244
12 5 3 359 351 348 352 357 357 352 347 346 345 344 347 355 6 11 19 157 188 188 190 204 227 230 220 212 210 211 211 211 212 213 215 217 217 218 218 219 221 223 224 226 226 227 229 231 232 233 235 235 236 237 239 241 242 244 245 245 246 246 245
7 9 3 354 346 343 344 346 347 344 341 341 340 339 343 350 357 3 11 11 203 197 195 198 208 228 237 227 216 212 212 212 213 214 216 217 217 218 218 219 221 223 224 225 225 226 228 229 231 232 233 235 235 236 239 241 242 244 245 246 247 247 246
353 3 1 347 338 335 339 340 338 335 333 332 333 335 337 341 346 354 4 8 273 217 210 209 209 211 219 225 222 216 213 213 213 214 216 216 216 217 218 220 221 223 223 224 225 227 228 228 230 231 232 234 234 235 237 240 242 243 244 246 247 246 245
347 351 349 342 333 329 334 336 333 331 328 323 324 330 333 337 344 349 356 6 359 320 258 240 235 225 218 220 221 218 215 214 214 216 217 216 216 218 219 220 221 222 222 223 224 226 227 228 229 230 231 232 232 233 236 239 240 242 243 245 246 245 244
349 348 341 338 335 333 334 337 333 328 320 315 317 329 338 341 347 349 352 2 3 348 318 273 260 250 236 229 225 220 217 216 216 217 217 217 217 219 220 220 222 222 222 221 223 225 227 228 229 230 230 231 232 233 234 237 239 240 241 244 244 244 243
341 344 340 336 338 337 335 336 332 327 323 320 321 332 348 351 349 348 350 354 354 348 339 324 305 285 260 243 234 228 223 220 219 219 218 219 219 220 220 221 222 223 222 222 223 226 227 228 229 230 231 231 232 234 234 236 239 239 240 242 243 242 241
331 337 335 334 338 338 335 336 335 329 326 324 323 331 346 354 350 346 346 347 348 348 346 340 334 325 301 267 247 238 233 228 226 224 222 222 222 222 222 222 222 221 221 222 223 225 226 228 228 230 232 232 233 234 234 236 238 239 240 241 241 241 240
321 328 328 329 334 339 339 337 334 328 321 317 321 331 341 348 350 347 342 342 345 345 341 337 333 330 323 301 269 251 244 239 235 233 231 228 227 226 224 223 222 221 220 220 222 223 224 226 228 230 232 233 233 234 235 236 237 239 240 241 240 240 239
321 327 329 329 332 341 344 337 331 329 326 322 324 330 338 343 346 344 339 338 339 337 335 333 329 325 321 313 295 275 261 252 245 241 238 235 232 229 228 226 224 222 221 220 220 221 223 225 226 228 231 233 233 234 236 237 238 238 239 240 240 240 238
310 317 325 327 329 335 340 337 331 329 327 327 330 334 337 341 343 340 335 332 332 336 337 335 330 323 317 312 305 299 291 275 259 248 241 238 235 232 230 228 225 223 221 219 219 220 222 224 225 226 229 231 233 234 235 237 238 238 239 240 240 240 239
303 308 317 319 321 329 335 334 330 328 326 328 334 336 335 337 339 335 328 326 332 338 338 335 329 321 314 309 304 302 301 295 280 262 248 240 236 233 231 228 225 223 221 219 218 218 220 223 223 224 226 228 230 233 234 235 236 238 238 239 240 240 240
296 297 306 312 316 326 333 331 326 326 327 329 332 334 334 335 335 328 322 325 331 334 331 328 324 317 311 308 303 301 299 296 290 279 262 247 237 232 230 227 224 222 220 219 217 217 220 221 221 221 224 226 228 231 232 233 234 236 238 239 239 240 241
295 291 296 306 314 321 330 331 327 323 325 328 329 330 331 331 329 325 322 323 325 325 322 320 317 312 310 309 305 303 301 297 292 287 276 259 244 235 231 227 223 221 220 218 216 217 219 220 219 220 222 225 228 230 230 231 232 235 236 237 237 239 240
296 293 292 298 308 314 322 327 325 321 322 324 324 324 325 326 327 325 322 321 324 323 319 313 309 306 305 305 302 300 298 295 291 288 281 267 250 238 232 229 224 221 218 216 215 217 218 219 219 219 221 224 227 228 228 228 231 233 234 234 234 237 238
296 294 292 296 302 308 313 318 319 316 314 315 318 318 319 322 325 324 323 325 327 324 316 308 302 299 299 300 297 294 293 292 290 288 283 272 254 239 231 227 223 220 219 217 216 215 216 217 218 220 222 224 225 225 225 227 230 231 231 230 231 233 234
296 295 293 292 295 299 304 308 311 311 308 308 313 316 316 318 321 323 325 327 326 322 315 307 299 296 296 297 295 291 289 290 290 289 285 276 259 243 234 228 223 220 221 221 220 219 218 218 218 221 223 224 224 221 218 223 229 233 232 231 231 232 232
292 293 292 290 289 291 295 298 304 307 305 306 311 314 314 315 318 323 326 326 324 323 318 308 299 293 290 291 293 291 288 289 292 291 288 280 264 247 237 232 227 224 223 224 224 224 223 223 224 226 225 224 224 223 222 227 233 236 234 232 233 234 234
281 284 287 287 283 284 289 295 301 303 303 306 311 314 313 313 315 320 323 324 328 330 325 314 300 288 284 285 287 287 285 286 290 292 291 286 272 253 239 232 229 226 226 226 226 226 226 227 230 231 228 226 226 227 229 233 237 237 235 234 234 235 237
273 275 279 279 275 275 281 288 293 299 303 306 308 311 312 311 313 318 321 325 334 339 333 320 301 285 281 282 281 282 284 285 287 289 290 287 276 258 241 231 226 225 225 225 225 226 227 228 230 232 231 230 231 231 231 234 235 235 235 237 237 237 239